Voltar ao catálogo

CZ-3A DEB

LostGTO
NORAD 35559·DEBRIS·🇨🇳 China

Lançado Feb 2, 2007 de Xichang Satellite Launch Center

Loading…

TLE

ObsoletoSource: Space-Track

Época: Oct 10, 2010, 14:20 UTC

1 35559U 07003T   10283.59723350 -.00000207  00000-0  10000-3 0  9999
2 35559  24.9417 325.6049 7376743 153.3983 278.4615  2.00074269 19399

Acompanhe CZ-3A DEB em tempo real com AllMySat

Download on the App Store